EST,Max TemperatureF,Mean TemperatureF,Min TemperatureF,Max Dew PointF,MeanDew PointF,Min DewpointF,Max Humidity, Mean Humidity, Min Humidity, Max Sea Level PressureIn, Mean Sea Level PressureIn, Min Sea Level PressureIn, Max VisibilityMiles, Mean VisibilityMiles, Min VisibilityMiles, Max Wind SpeedMPH, Mean Wind SpeedMPH, Max Gust SpeedMPH,PrecipitationIn, CloudCover, Events, WindDirDegrees
2011-12-1,46,33,20,30,24,17,92,71,49,30.36,30.30,30.24,10,10,10,12,2,16,0.00,0,,181
2011-12-2,50,38,26,34,31,24,92,69,46,30.46,30.40,30.30,10,10,7,7,2,9,0.00,1,,125
2011-12-3,60,49,37,37,33,30,85,61,37,30.42,30.30,30.13,10,10,10,15,8,20,0.00,3,,157
2011-12-4,58,51,43,49,44,31,93,65,36,30.17,30.13,30.07,10,8,3,24,11,35,0.48,8,Rain,186
2011-12-5,43,40,37,41,38,34,100,93,85,30.18,30.13,30.06,10,7,3,16,11,23,0.80,8,Rain,11
2011-12-6,37,35,33,34,32,28,96,89,82,30.18,30.14,30.09,10,7,2,16,9,22,0.00,8,,21
2011-12-7,39,34,28,28,26,23,85,72,59,30.20,30.09,30.03,10,10,10,15,7,21,0.00,5,,324
2011-12-8,42,32,21,26,23,19,92,69,45,30.30,30.24,30.19,10,9,6,16,4,20,0.00,0,,229
2011-12-9,38,32,25,30,26,19,85,77,69,30.45,30.29,30.19,10,10,8,10,4,16,0.00,7,,273
2011-12-10,32,23,14,17,11,6,81,59,36,30.60,30.54,30.45,10,10,10,10,2,14,0.00,0,,280
2011-12-11,41,29,16,19,16,12,80,59,37,30.58,30.52,30.45,10,10,8,9,3,12,0.00,0,,146
2011-12-12,49,34,18,28,22,15,88,65,42,30.48,30.43,30.40,10,10,10,8,1,10,0.00,1,,154
2011-12-13,44,37,29,43,39,27,100,90,79,30.47,30.38,30.31,10,4,2,7,3,9,T,8,Rain,164
2011-12-14,58,51,43,54,48,42,100,90,80,30.30,30.13,29.91,10,4,0,17,8,25,0.50,8,Fog-Rain-Thunderstorm,164
2011-12-15,61,48,34,57,44,25,93,79,64,30.27,29.99,29.82,10,9,3,28,13,37,0.57,7,Rain-Thunderstorm,260
2011-12-16,38,33,28,27,25,24,85,75,64,30.40,30.32,30.27,10,10,10,14,4,18,0.00,3,,323
2011-12-17,39,31,22,30,25,20,88,74,59,30.36,30.30,30.23,10,9,4,14,4,17,0.00,4,,243
2011-12-18,51,38,24,34,30,24,92,69,46,30.31,30.23,30.11,10,9,5,15,6,18,0.00,0,,216
2011-12-19,50,47,44,43,38,31,92,74,56,30.13,30.08,30.04,10,8,4,18,10,28,0.06,8,Rain,226
2011-12-20,50,47,43,49,44,41,100,91,82,30.12,29.95,29.78,10,3,0,10,5,14,0.08,8,Fog-Rain,134
2011-12-21,58,51,44,56,48,39,96,86,76,29.99,29.77,29.66,10,8,0,21,7,26,0.09,8,Fog-Rain,230
2011-12-22,47,44,41,43,41,38,96,89,82,30.14,30.05,29.98,10,8,4,8,2,13,0.02,8,Rain,14
2011-12-23,42,37,32,38,31,25,92,78,64,30.35,30.26,30.12,10,9,5,14,6,18,T,7,Rain,315
2011-12-24,44,33,22,28,26,20,92,71,49,30.43,30.37,30.33,10,9,5,17,6,22,0.00,0,,221
2011-12-25,50,40,29,29,28,26,85,62,39,30.35,30.27,30.17,10,10,10,18,8,28,0.00,0,,262
2011-12-26,45,34,22,30,26,19,92,73,53,30.38,30.24,29.99,10,10,10,14,4,17,T,0,,157
2011-12-27,38,36,33,34,32,28,96,86,75,29.95,29.68,29.56,10,3,0,16,8,25,0.31,8,Fog-Rain-Snow,284
2011-12-28,38,33,27,28,27,25,92,78,64,30.10,30.04,29.95,10,10,10,13,5,18,0.00,4,,257
2011-12-29,53,43,32,36,33,28,82,66,50,29.95,29.80,29.68,10,10,10,24,11,31,0.00,2,,217
2011-12-30,52,46,40,45,41,36,93,79,65,29.79,29.68,29.54,10,10,6,26,13,37,0.04,8,Rain,231
2011-12-31,42,40,38,36,35,34,92,84,76,30.09,29.97,29.81,10,10,7,16,7,26,T,5,,209